Wetterdaten: Samstag, 25.12.2010
Datum Zeit Temp. A. Feuchte A. Luftdruck Regen Wind Richtung Richtung Sonnenschein UV Solar Windben
25.12.2010 00:00 -3,6 C 89 % 1013,4 hPa 0,0 mm 3,2 km/h (1 Bft) N 360 0 min 0 UV-I 0 W/m 9,7 km/h (2 Bft)
25.12.2010 00:10 -3,6 C 89 % 1013,4 hPa 0,0 mm 3,2 km/h (1 Bft) N-NO 22 0 min 0 UV-I 0 W/m 14,5 km/h (3 Bft)
25.12.2010 00:20 -3,6 C 89 % 1013,6 hPa 0,0 mm 3,2 km/h (1 Bft) N 360 0 min 0 UV-I 0 W/m 17,7 km/h (3 Bft)
25.12.2010 00:30 -3,6 C 89 % 1013,7 hPa 0,0 mm 3,2 km/h (1 Bft) N 360 0 min 0 UV-I 0 W/m 16,1 km/h (3 Bft)
25.12.2010 00:40 -3,6 C 89 % 1013,9 hPa 0,0 mm 3,2 km/h (1 Bft) N 360 0 min 0 UV-I 0 W/m 12,9 km/h (3 Bft)
25.12.2010 00:50 -3,7 C 89 % 1013,9 hPa 0,0 mm 3,2 km/h (1 Bft) N-NO 22 0 min 0 UV-I 0 W/m 11,3 km/h (2 Bft)
25.12.2010 01:00 -3,7 C 89 % 1014,0 hPa 0,0 mm 3,2 km/h (1 Bft) N 360 0 min 0 UV-I 0 W/m 11,3 km/h (2 Bft)
25.12.2010 01:10 -3,8 C 89 % 1014,0 hPa 0,3 mm 3,2 km/h (1 Bft) N-NO 22 0 min 0 UV-I 0 W/m 11,3 km/h (2 Bft)
25.12.2010 01:20 -3,8 C 89 % 1014,4 hPa 0,0 mm 3,2 km/h (1 Bft) N 360 0 min 0 UV-I 0 W/m 16,1 km/h (3 Bft)
25.12.2010 01:30 -3,8 C 89 % 1014,4 hPa 0,0 mm 3,2 km/h (1 Bft) N 360 0 min 0 UV-I 0 W/m 16,1 km/h (3 Bft)
25.12.2010 01:40 -3,9 C 89 % 1014,4 hPa 0,0 mm 3,2 km/h (1 Bft) N-NO 22 0 min 0 UV-I 0 W/m 14,5 km/h (3 Bft)
25.12.2010 01:50 -3,9 C 89 % 1014,5 hPa 0,0 mm 4,8 km/h (1 Bft) N-NO 22 0 min 0 UV-I 0 W/m 17,7 km/h (3 Bft)
25.12.2010 02:00 -4,0 C 89 % 1014,6 hPa 0,0 mm 3,2 km/h (1 Bft) N-NO 22 0 min 0 UV-I 0 W/m 17,7 km/h (3 Bft)
25.12.2010 02:10 -4,1 C 88 % 1014,8 hPa 0,0 mm 4,8 km/h (1 Bft) N-NO 22 0 min 0 UV-I 0 W/m 14,5 km/h (3 Bft)
25.12.2010 02:20 -4,2 C 88 % 1014,9 hPa 0,0 mm 4,8 km/h (1 Bft) N-NO 22 0 min 0 UV-I 0 W/m 20,9 km/h (4 Bft)
25.12.2010 02:30 -4,3 C 88 % 1015,2 hPa 0,0 mm 4,8 km/h (1 Bft) N 360 0 min 0 UV-I 0 W/m 16,1 km/h (3 Bft)
25.12.2010 02:40 -4,4 C 88 % 1015,3 hPa 0,0 mm 4,8 km/h (1 Bft) N-NO 22 0 min 0 UV-I 0 W/m 14,5 km/h (3 Bft)
25.12.2010 02:50 -4,4 C 88 % 1015,5 hPa 0,0 mm 3,2 km/h (1 Bft) N-NO 22 0 min 0 UV-I 0 W/m 14,5 km/h (3 Bft)
25.12.2010 03:00 -4,5 C 88 % 1015,7 hPa 0,0 mm 4,8 km/h (1 Bft) N 360 0 min 0 UV-I 0 W/m 17,7 km/h (3 Bft)
25.12.2010 03:10 -4,6 C 88 % 1015,7 hPa 0,0 mm 3,2 km/h (1 Bft) N-NO 22 0 min 0 UV-I 0 W/m 16,1 km/h (3 Bft)
25.12.2010 03:20 -4,7 C 88 % 1015,8 hPa 0,0 mm 1,6 km/h (1 Bft) N-NO 22 0 min 0 UV-I 0 W/m 9,7 km/h (2 Bft)
25.12.2010 03:30 -4,7 C 88 % 1015,8 hPa 0,0 mm 3,2 km/h (1 Bft) N-NO 22 0 min 0 UV-I 0 W/m 9,7 km/h (2 Bft)
25.12.2010 03:40 -4,7 C 88 % 1015,9 hPa 0,0 mm 1,6 km/h (1 Bft) N 360 0 min 0 UV-I 0 W/m 8,0 km/h (2 Bft)
25.12.2010 03:50 -4,7 C 88 % 1016,0 hPa 0,0 mm 1,6 km/h (1 Bft) N-NO 22 0 min 0 UV-I 0 W/m 9,7 km/h (2 Bft)
25.12.2010 04:00 -4,8 C 88 % 1016,1 hPa 0,0 mm 3,2 km/h (1 Bft) N 360 0 min 0 UV-I 0 W/m 17,7 km/h (3 Bft)
25.12.2010 04:10 -4,8 C 88 % 1016,2 hPa 0,0 mm 1,6 km/h (1 Bft) N 360 0 min 0 UV-I 0 W/m 8,0 km/h (2 Bft)
25.12.2010 04:20 -4,8 C 88 % 1016,3 hPa 0,0 mm 1,6 km/h (1 Bft) N 360 0 min 0 UV-I 0 W/m 4,8 km/h (1 Bft)
25.12.2010 04:30 -4,9 C 88 % 1016,4 hPa 0,0 mm 3,2 km/h (1 Bft) N-NO 22 0 min 0 UV-I 0 W/m 14,5 km/h (3 Bft)
25.12.2010 04:40 -4,9 C 88 % 1016,6 hPa 0,0 mm 1,6 km/h (1 Bft) N 360 0 min 0 UV-I 0 W/m 11,3 km/h (2 Bft)
25.12.2010 04:50 -5,0 C 88 % 1016,7 hPa 0,0 mm 3,2 km/h (1 Bft) N-NO 22 0 min 0 UV-I 0 W/m 9,7 km/h (2 Bft)
25.12.2010 05:00 -5,1 C 88 % 1016,8 hPa 0,0 mm 4,8 km/h (1 Bft) N-NO 22 0 min 0 UV-I 0 W/m 14,5 km/h (3 Bft)
25.12.2010 05:10 -5,1 C 88 % 1016,9 hPa 0,0 mm 4,8 km/h (1 Bft) N 360 0 min 0 UV-I 0 W/m 16,1 km/h (3 Bft)
25.12.2010 05:20 -5,2 C 88 % 1017,1 hPa 0,0 mm 4,8 km/h (1 Bft) N-NO 22 0 min 0 UV-I 0 W/m 16,1 km/h (3 Bft)
25.12.2010 05:30 -5,3 C 88 % 1017,2 hPa 0,0 mm 4,8 km/h (1 Bft) N-NO 22 0 min 0 UV-I 0 W/m 14,5 km/h (3 Bft)
25.12.2010 05:40 -5,4 C 88 % 1017,4 hPa 0,0 mm 4,8 km/h (1 Bft) N-NO 22 0 min 0 UV-I 0 W/m 16,1 km/h (3 Bft)
25.12.2010 05:50 -5,4 C 88 % 1017,5 hPa 0,0 mm 3,2 km/h (1 Bft) N 360 0 min 0 UV-I 0 W/m 17,7 km/h (3 Bft)
25.12.2010 06:00 -5,6 C 88 % 1017,6 hPa 0,0 mm 3,2 km/h (1 Bft) N 360 0 min 0 UV-I 0 W/m 16,1 km/h (3 Bft)
25.12.2010 06:10 -5,6 C 88 % 1017,8 hPa 0,0 mm 3,2 km/h (1 Bft) N 360 0 min 0 UV-I 0 W/m 9,7 km/h (2 Bft)
25.12.2010 06:20 -5,7 C 88 % 1017,9 hPa 0,0 mm 1,6 km/h (1 Bft) N-NO 22 0 min 0 UV-I 0 W/m 8,0 km/h (2 Bft)
25.12.2010 06:30 -5,7 C 88 % 1018,1 hPa 0,0 mm 1,6 km/h (1 Bft) N 360 0 min 0 UV-I 0 W/m 14,5 km/h (3 Bft)
25.12.2010 06:40 -5,7 C 88 % 1018,3 hPa 0,0 mm 1,6 km/h (1 Bft) NW 315 0 min 0 UV-I 0 W/m 6,4 km/h (2 Bft)
25.12.2010 06:50 -5,7 C 88 % 1018,3 hPa 0,0 mm 1,6 km/h (1 Bft) N-NW 337 0 min 0 UV-I 0 W/m 8,0 km/h (2 Bft)
25.12.2010 07:00 -5,7 C 88 % 1018,5 hPa 0,0 mm 0,0 km/h (0 Bft) N 360 0 min 0 UV-I 0 W/m 4,8 km/h (1 Bft)
25.12.2010 07:10 -5,7 C 88 % 1018,6 hPa 0,0 mm 1,6 km/h (1 Bft) W-NW 292 0 min 0 UV-I 0 W/m 6,4 km/h (2 Bft)
25.12.2010 07:20 -5,7 C 88 % 1018,7 hPa 0,0 mm 3,2 km/h (1 Bft) N-NO 22 0 min 0 UV-I 0 W/m 8,0 km/h (2 Bft)
25.12.2010 07:30 -5,7 C 88 % 1018,7 hPa 0,0 mm 0,0 km/h (0 Bft) N 360 0 min 0 UV-I 0 W/m 8,0 km/h (2 Bft)
25.12.2010 07:40 -5,7 C 88 % 1018,8 hPa 0,0 mm 0,0 km/h (0 Bft) N-NO 22 0 min 0 UV-I 0 W/m 4,8 km/h (1 Bft)
25.12.2010 07:50 -5,7 C 88 % 1018,8 hPa 0,0 mm 1,6 km/h (1 Bft) N-NO 22 0 min 0 UV-I 0 W/m 4,8 km/h (1 Bft)
25.12.2010 08:00 -5,7 C 88 % 1019,0 hPa 0,0 mm 0,5 km/h (0 Bft) N 355 0 min 0 UV-I 0 W/m 3,2 km/h (1 Bft)
25.12.2010 08:10 -5,7 C 88 % 1019,1 hPa 0,0 mm 1,6 km/h (1 Bft) N 360 0 min 0 UV-I 0 W/m 6,4 km/h (2 Bft)
25.12.2010 08:20 -5,8 C 88 % 1019,3 hPa 0,0 mm 0,0 km/h (0 Bft) N 360 0 min 0 UV-I 0 W/m 4,8 km/h (1 Bft)
25.12.2010 08:30 -5,8 C 88 % 1019,4 hPa 0,0 mm 1,6 km/h (1 Bft) N-NO 22 0 min 0 UV-I 0 W/m 8,0 km/h (2 Bft)
25.12.2010 08:40 -5,9 C 88 % 1019,6 hPa 0,0 mm 1,6 km/h (1 Bft) N 360 0 min 0 UV-I 0 W/m 9,7 km/h (2 Bft)
25.12.2010 08:50 -5,9 C 87 % 1019,8 hPa 0,0 mm 1,6 km/h (1 Bft) NW 315 0 min 0 UV-I 0 W/m 6,4 km/h (2 Bft)
25.12.2010 09:00 -6,0 C 87 % 1020,0 hPa 0,0 mm 1,6 km/h (1 Bft) N-NO 22 0 min 0 UV-I 0 W/m 9,7 km/h (2 Bft)
25.12.2010 09:10 -6,0 C 87 % 1020,2 hPa 0,0 mm 1,6 km/h (1 Bft) NW 315 0 min 0 UV-I 5 W/m 9,7 km/h (2 Bft)
25.12.2010 09:20 -6,1 C 87 % 1020,2 hPa 0,0 mm 1,6 km/h (1 Bft) NW 315 0 min 0 UV-I 7 W/m 8,0 km/h (2 Bft)
25.12.2010 09:30 -6,1 C 87 % 1020,4 hPa 0,0 mm 1,6 km/h (1 Bft) W-NW 292 0 min 0 UV-I 12 W/m 9,7 km/h (2 Bft)
25.12.2010 09:40 -6,1 C 87 % 1020,5 hPa 0,0 mm 1,6 km/h (1 Bft) NW 315 0 min 0 UV-I 14 W/m 8,0 km/h (2 Bft)
25.12.2010 09:50 -6,2 C 87 % 1020,6 hPa 0,0 mm 3,2 km/h (1 Bft) N-NO 22 0 min 0 UV-I 21 W/m 9,7 km/h (2 Bft)
25.12.2010 10:00 -6,2 C 87 % 1020,7 hPa 0,0 mm 1,6 km/h (1 Bft) N-NW 337 0 min 0 UV-I 28 W/m 6,4 km/h (2 Bft)
25.12.2010 10:10 -6,1 C 87 % 1020,9 hPa 0,0 mm 0,0 km/h (0 Bft) N 360 0 min 0 UV-I 40 W/m 6,4 km/h (2 Bft)
25.12.2010 10:20 -6,0 C 87 % 1021,1 hPa 0,0 mm 1,6 km/h (1 Bft) W 270 0 min 0 UV-I 39 W/m 6,4 km/h (2 Bft)
25.12.2010 10:30 -6,0 C 87 % 1021,4 hPa 0,0 mm 1,6 km/h (1 Bft) N-NO 22 0 min 0 UV-I 49 W/m 9,7 km/h (2 Bft)
25.12.2010 10:40 -5,9 C 87 % 1021,4 hPa 0,0 mm 1,6 km/h (1 Bft) N-NO 22 0 min 0 UV-I 51 W/m 6,4 km/h (2 Bft)
25.12.2010 10:50 -5,9 C 86 % 1021,5 hPa 0,0 mm 1,6 km/h (1 Bft) NW 315 0 min 0 UV-I 44 W/m 4,8 km/h (1 Bft)
25.12.2010 11:00 -5,9 C 86 % 1021,7 hPa 0,0 mm 1,6 km/h (1 Bft) NW 315 0 min 0 UV-I 49 W/m 8,0 km/h (2 Bft)
25.12.2010 11:10 -5,9 C 86 % 1021,8 hPa 0,0 mm 1,6 km/h (1 Bft) NW 315 0 min 0 UV-I 69 W/m 9,7 km/h (2 Bft)
25.12.2010 11:20 -5,9 C 86 % 1021,9 hPa 0,0 mm 1,6 km/h (1 Bft) W-NW 292 0 min 0 UV-I 83 W/m 6,4 km/h (2 Bft)
25.12.2010 11:30 -5,8 C 86 % 1021,9 hPa 0,0 mm 1,6 km/h (1 Bft) NW 315 0 min 0 UV-I 90 W/m 4,8 km/h (1 Bft)
25.12.2010 11:40 -5,7 C 86 % 1021,9 hPa 0,0 mm 1,6 km/h (1 Bft) W-NW 292 0 min 0 UV-I 91 W/m 4,8 km/h (1 Bft)
25.12.2010 11:50 -5,6 C 86 % 1022,1 hPa 0,0 mm 1,6 km/h (1 Bft) NW 315 0 min 0 UV-I 104 W/m 9,7 km/h (2 Bft)
25.12.2010 12:00 -5,5 C 85 % 1022,1 hPa 0,0 mm 3,2 km/h (1 Bft) W-NW 292 0 min 0 UV-I 98 W/m 14,5 km/h (3 Bft)
25.12.2010 12:10 -5,4 C 85 % 1022,3 hPa 0,0 mm 1,6 km/h (1 Bft) NW 315 0 min 0 UV-I 111 W/m 8,0 km/h (2 Bft)
25.12.2010 12:20 -5,3 C 84 % 1022,2 hPa 0,0 mm 3,2 km/h (1 Bft) W-NW 292 0 min 0 UV-I 111 W/m 8,0 km/h (2 Bft)
25.12.2010 12:30 -5,3 C 84 % 1022,2 hPa 0,0 mm 3,2 km/h (1 Bft) NW 315 0 min 0 UV-I 107 W/m 8,0 km/h (2 Bft)
25.12.2010 12:40 -5,2 C 83 % 1022,3 hPa 0,0 mm 1,6 km/h (1 Bft) W-NW 292 0 min 0 UV-I 100 W/m 4,8 km/h (1 Bft)
25.12.2010 12:50 -5,1 C 83 % 1022,3 hPa 0,0 mm 3,2 km/h (1 Bft) W-NW 292 0 min 0 UV-I 100 W/m 8,0 km/h (2 Bft)
25.12.2010 13:00 -5,1 C 83 % 1022,4 hPa 0,0 mm 3,2 km/h (1 Bft) W-NW 292 0 min 0 UV-I 90 W/m 8,0 km/h (2 Bft)
25.12.2010 13:10 -5,2 C 82 % 1022,4 hPa 0,0 mm 1,6 km/h (1 Bft) NW 315 0 min 0 UV-I 69 W/m 9,7 km/h (2 Bft)
25.12.2010 13:20 -5,3 C 82 % 1022,5 hPa 0,0 mm 1,6 km/h (1 Bft) W-NW 292 0 min 0 UV-I 77 W/m 8,0 km/h (2 Bft)
25.12.2010 13:30 -5,4 C 82 % 1022,6 hPa 0,0 mm 1,6 km/h (1 Bft) W-NW 292 0 min 0 UV-I 77 W/m 8,0 km/h (2 Bft)
25.12.2010 13:40 -5,4 C 82 % 1022,6 hPa 0,0 mm 1,6 km/h (1 Bft) W-NW 292 0 min 0 UV-I 79 W/m 11,3 km/h (2 Bft)
25.12.2010 13:50 -5,5 C 81 % 1022,6 hPa 0,0 mm 1,6 km/h (1 Bft) W-NW 292 0 min 0 UV-I 81 W/m 8,0 km/h (2 Bft)
25.12.2010 14:00 -5,6 C 81 % 1022,7 hPa 0,0 mm 1,6 km/h (1 Bft) W-NW 292 0 min 0 UV-I 72 W/m 6,4 km/h (2 Bft)
25.12.2010 14:10 -5,6 C 81 % 1022,7 hPa 0,0 mm 1,6 km/h (1 Bft) W-NW 292 0 min 0 UV-I 67 W/m 4,8 km/h (1 Bft)
25.12.2010 14:20 -5,6 C 82 % 1022,8 hPa 0,0 mm 0,0 km/h (0 Bft) W 270 0 min 0 UV-I 63 W/m 4,8 km/h (1 Bft)
25.12.2010 14:30 -5,5 C 82 % 1022,8 hPa 0,0 mm 0,0 km/h (0 Bft) W 270 0 min 0 UV-I 56 W/m 4,8 km/h (1 Bft)
25.12.2010 14:40 -5,5 C 81 % 1022,8 hPa 0,0 mm 1,6 km/h (1 Bft) W 270 0 min 0 UV-I 53 W/m 4,8 km/h (1 Bft)
25.12.2010 14:50 -5,6 C 81 % 1022,9 hPa 0,0 mm 1,6 km/h (1 Bft) W 270 0 min 0 UV-I 49 W/m 4,8 km/h (1 Bft)
25.12.2010 15:00 -5,6 C 81 % 1022,9 hPa 0,0 mm 1,6 km/h (1 Bft) W 270 0 min 0 UV-I 44 W/m 4,8 km/h (1 Bft)
25.12.2010 15:10 -5,7 C 81 % 1023,0 hPa 0,0 mm 0,0 km/h (0 Bft) W 270 0 min 0 UV-I 39 W/m 4,8 km/h (1 Bft)
25.12.2010 15:20 -5,7 C 81 % 1023,2 hPa 0,0 mm 0,0 km/h (0 Bft) W-NW 292 0 min 0 UV-I 37 W/m 8,0 km/h (2 Bft)
25.12.2010 15:30 -5,7 C 81 % 1023,3 hPa 0,0 mm 1,6 km/h (1 Bft) W 270 0 min 0 UV-I 35 W/m 4,8 km/h (1 Bft)
25.12.2010 15:40 -5,8 C 81 % 1023,4 hPa 0,0 mm 1,6 km/h (1 Bft) W-NW 292 0 min 0 UV-I 26 W/m 4,8 km/h (1 Bft)
25.12.2010 15:50 -5,9 C 81 % 1023,5 hPa 0,0 mm 1,6 km/h (1 Bft) W 270 0 min 0 UV-I 21 W/m 6,4 km/h (2 Bft)
25.12.2010 16:00 -6,1 C 81 % 1023,5 hPa 0,0 mm 1,5 km/h (1 Bft) W-SW 254 0 min 0 UV-I 10 W/m 4,8 km/h (1 Bft)
25.12.2010 16:10 -6,2 C 82 % 1023,6 hPa 0,0 mm 1,6 km/h (1 Bft) W 270 0 min 0 UV-I 9 W/m 6,4 km/h (2 Bft)
25.12.2010 16:20 -6,3 C 82 % 1023,6 hPa 0,0 mm 1,6 km/h (1 Bft) W 270 0 min 0 UV-I 0 W/m 6,4 km/h (2 Bft)
25.12.2010 16:30 -6,4 C 82 % 1023,9 hPa 0,0 mm 1,6 km/h (1 Bft) W 270 0 min 0 UV-I 0 W/m 4,8 km/h (1 Bft)
25.12.2010 16:40 -6,6 C 82 % 1023,9 hPa 0,0 mm 0,0 km/h (0 Bft) W-SW 247 0 min 0 UV-I 0 W/m 4,8 km/h (1 Bft)
25.12.2010 16:50 -6,7 C 82 % 1024,0 hPa 0,0 mm 1,6 km/h (1 Bft) SW 225 0 min 0 UV-I 0 W/m 6,4 km/h (2 Bft)
25.12.2010 17:00 -6,8 C 82 % 1024,2 hPa 0,0 mm 1,6 km/h (1 Bft) W 270 0 min 0 UV-I 0 W/m 4,8 km/h (1 Bft)
25.12.2010 17:10 -7,0 C 82 % 1024,3 hPa 0,0 mm 0,0 km/h (0 Bft) W-SW 247 0 min 0 UV-I 0 W/m 4,8 km/h (1 Bft)
25.12.2010 17:20 -7,1 C 83 % 1024,3 hPa 0,0 mm 0,0 km/h (0 Bft) W-SW 247 0 min 0 UV-I 0 W/m 3,2 km/h (1 Bft)
25.12.2010 17:30 -7,2 C 83 % 1024,4 hPa 0,0 mm 1,6 km/h (1 Bft) W-SW 247 0 min 0 UV-I 0 W/m 4,8 km/h (1 Bft)
25.12.2010 17:40 -7,4 C 83 % 1024,5 hPa 0,0 mm 0,0 km/h (0 Bft) W-SW 247 0 min 0 UV-I 0 W/m 3,2 km/h (1 Bft)
25.12.2010 17:50 -7,5 C 83 % 1024,6 hPa 0,0 mm 0,0 km/h (0 Bft) W-SW 247 0 min 0 UV-I 0 W/m 3,2 km/h (1 Bft)
25.12.2010 18:00 -7,6 C 83 % 1024,7 hPa 0,0 mm 1,6 km/h (1 Bft) W-SW 247 0 min 0 UV-I 0 W/m 4,8 km/h (1 Bft)
25.12.2010 18:10 -7,7 C 84 % 1024,7 hPa 0,0 mm 1,6 km/h (1 Bft) W-SW 247 0 min 0 UV-I 0 W/m 4,8 km/h (1 Bft)
25.12.2010 18:20 -7,7 C 84 % 1024,7 hPa 0,0 mm 0,0 km/h (0 Bft) W-SW 247 0 min 0 UV-I 0 W/m 3,2 km/h (1 Bft)
25.12.2010 18:30 -7,8 C 84 % 1024,7 hPa 0,0 mm 0,0 km/h (0 Bft) W-SW 247 0 min 0 UV-I 0 W/m 1,6 km/h (1 Bft)
25.12.2010 18:40 -7,8 C 84 % 1024,9 hPa 0,0 mm 0,0 km/h (0 Bft) W-SW 247 0 min 0 UV-I 0 W/m 3,2 km/h (1 Bft)
25.12.2010 18:50 -7,9 C 84 % 1025,0 hPa 0,0 mm 0,0 km/h (0 Bft) W-SW 247 0 min 0 UV-I 0 W/m 3,2 km/h (1 Bft)
25.12.2010 19:00 -8,1 C 84 % 1025,0 hPa 0,0 mm 0,0 km/h (0 Bft) W-SW 247 0 min 0 UV-I 0 W/m 3,2 km/h (1 Bft)
25.12.2010 19:10 -8,3 C 84 % 1025,0 hPa 0,0 mm 0,0 km/h (0 Bft) W-SW 247 0 min 0 UV-I 0 W/m 1,6 km/h (1 Bft)
25.12.2010 19:20 -8,4 C 84 % 1025,1 hPa 0,0 mm 0,0 km/h (0 Bft) W-SW 247 0 min 0 UV-I 0 W/m 1,6 km/h (1 Bft)
25.12.2010 19:30 -8,5 C 84 % 1025,2 hPa 0,0 mm 0,0 km/h (0 Bft) W-SW 247 0 min 0 UV-I 0 W/m 1,6 km/h (1 Bft)
25.12.2010 19:40 -8,7 C 84 % 1025,4 hPa 0,0 mm 0,0 km/h (0 Bft) W-SW 247 0 min 0 UV-I 0 W/m 3,2 km/h (1 Bft)
25.12.2010 19:50 -8,8 C 84 % 1025,6 hPa 0,0 mm 0,0 km/h (0 Bft) W-SW 247 0 min 0 UV-I 0 W/m 3,2 km/h (1 Bft)
25.12.2010 20:00 -8,9 C 85 % 1025,5 hPa 0,0 mm 0,0 km/h (0 Bft) W-SW 247 0 min 0 UV-I 0 W/m 4,8 km/h (1 Bft)
25.12.2010 20:10 -8,9 C 85 % 1025,6 hPa 0,0 mm 0,0 km/h (0 Bft) W-SW 247 0 min 0 UV-I 0 W/m 3,2 km/h (1 Bft)
25.12.2010 20:20 -8,9 C 85 % 1025,7 hPa 0,0 mm 0,0 km/h (0 Bft) W-SW 247 0 min 0 UV-I 0 W/m 1,6 km/h (1 Bft)
25.12.2010 20:30 -8,9 C 85 % 1025,7 hPa 0,0 mm 0,0 km/h (0 Bft) W-SW 247 0 min 0 UV-I 0 W/m 1,6 km/h (1 Bft)
25.12.2010 20:40 -8,9 C 85 % 1025,9 hPa 0,0 mm 0,0 km/h (0 Bft) W-SW 247 0 min 0 UV-I 0 W/m 1,6 km/h (1 Bft)
25.12.2010 20:50 -8,9 C 86 % 1025,7 hPa 0,0 mm 0,0 km/h (0 Bft) W-SW 247 0 min 0 UV-I 0 W/m 1,6 km/h (1 Bft)
25.12.2010 21:00 -8,9 C 86 % 1025,6 hPa 0,0 mm 0,0 km/h (0 Bft) W-SW 247 0 min 0 UV-I 0 W/m 1,6 km/h (1 Bft)
25.12.2010 21:10 -8,8 C 86 % 1025,7 hPa 0,0 mm 0,0 km/h (0 Bft) N 0 0 min 0 UV-I 0 W/m 0,0 km/h (0 Bft)
25.12.2010 21:20 -8,7 C 86 % 1025,8 hPa 0,0 mm 0,0 km/h (0 Bft) W-SW 247 0 min 0 UV-I 0 W/m 1,6 km/h (1 Bft)
25.12.2010 21:30 -8,6 C 86 % 1025,9 hPa 0,0 mm 0,0 km/h (0 Bft) N 0 0 min 0 UV-I 0 W/m 0,0 km/h (0 Bft)
25.12.2010 21:40 -8,5 C 87 % 1025,9 hPa 0,0 mm 0,0 km/h (0 Bft) N 0 0 min 0 UV-I 0 W/m 0,0 km/h (0 Bft)
25.12.2010 21:50 -8,4 C 87 % 1025,9 hPa 0,0 mm 0,0 km/h (0 Bft) W-SW 247 0 min 0 UV-I 0 W/m 1,6 km/h (1 Bft)
25.12.2010 22:00 -8,3 C 87 % 1025,7 hPa 0,0 mm 0,0 km/h (0 Bft) N 0 0 min 0 UV-I 0 W/m 0,0 km/h (0 Bft)
25.12.2010 22:10 -8,3 C 87 % 1025,8 hPa 0,0 mm 0,0 km/h (0 Bft) N 0 0 min 0 UV-I 0 W/m 0,0 km/h (0 Bft)
25.12.2010 22:20 -8,2 C 87 % 1025,8 hPa 0,0 mm 0,0 km/h (0 Bft) W-SW 247 0 min 0 UV-I 0 W/m 1,6 km/h (1 Bft)
25.12.2010 22:30 -8,1 C 87 % 1025,9 hPa 0,0 mm 0,0 km/h (0 Bft) W-SW 247 0 min 0 UV-I 0 W/m 1,6 km/h (1 Bft)
25.12.2010 22:40 -7,9 C 87 % 1026,0 hPa 0,0 mm 0,0 km/h (0 Bft) W-SW 247 0 min 0 UV-I 0 W/m 1,6 km/h (1 Bft)
25.12.2010 22:50 -7,9 C 87 % 1025,9 hPa 0,0 mm 0,0 km/h (0 Bft) N 0 0 min 0 UV-I 0 W/m 0,0 km/h (0 Bft)
25.12.2010 23:00 -7,8 C 88 % 1025,6 hPa 0,0 mm 0,0 km/h (0 Bft) W-SW 247 0 min 0 UV-I 0 W/m 1,6 km/h (1 Bft)
25.12.2010 23:10 -7,7 C 87 % 1025,2 hPa 0,0 mm 0,0 km/h (0 Bft) W-SW 247 0 min 0 UV-I 0 W/m 1,6 km/h (1 Bft)
25.12.2010 23:20 -7,6 C 88 % 1025,6 hPa 0,0 mm 0,0 km/h (0 Bft) W-SW 247 0 min 0 UV-I 0 W/m 3,2 km/h (1 Bft)
25.12.2010 23:30 -7,4 C 88 % 1025,7 hPa 0,0 mm 0,0 km/h (0 Bft) W-SW 247 0 min 0 UV-I 0 W/m 3,2 km/h (1 Bft)
25.12.2010 23:40 -7,3 C 88 % 1025,8 hPa 0,0 mm 0,0 km/h (0 Bft) W 270 0 min 0 UV-I 0 W/m 1,6 km/h (1 Bft)
25.12.2010 23:50 -7,3 C 88 % 1025,8 hPa 0,0 mm 0,0 km/h (0 Bft) W 270 0 min 0 UV-I 0 W/m 1,6 km/h (1 Bft)
_ Min-Zeit 20:00 13:50 00:00 - 07:00 - - - - - 21:10
Minimum _ -8,9 C 81 % 1013,4 hPa - 0,0 km/h (0 Bft) - - - - - 0,0 km/h (0 Bft)
_ Max-Zeit 00:00 00:00 22:40 01:10 01:50 - - 00:00 00:00 12:10 02:20
Maximum _ -3,6 C 89 % 1026,0 hPa 0,3 mm 4,8 km/h
N-NO (1 Bft)
- - 0 min 0 UV-I 111 W/m 20,9 km/h
N-NO (4 Bft)
Durchschnitt _ -6,1 C 86 % 1021,0 hPa #0,3 mm 1,6 km/h (1 Bft) N-NO - #0 min. 0 UV-I 58 W/m 7,5 km/h (2 Bft)